Regional Weather Roundup
Issued by NWS Raleigh/Durham, NC

Home | Current Version | Previous Version | Text Only | Print | Product List | Glossary On
Versions: 1 2 3 4 5 6 7 8 9 10 11 12 13 14 15 16 17 18 19 20 21 22 23 24 25 26 27 28 29 30 31 32 33 34 35 36 37 38 39 40 41 42 43 44 45 46 47 48 49 50
000
ASUS42 KRAH 161510
RWRRAH
NORTH CAROLINA WEATHER ROUNDUP
NATIONAL WEATHER SERVICE RALEIGH NC
1100 AM EDT SUN JUN 16 2019

NOTE: "FAIR" INDICATES FEW OR NO CLOUDS BELOW 12,000 FEET WITH NO
SIGNIFICANT WEATHER AND/OR OBSTRUCTIONS TO VISIBILITY.

NCZ001-053-055-056-065-067-161600-
WESTERN NORTH CAROLINA

CITY           SKY/WX    TMP DP  RH WIND       PRES   REMARKS
ASHEVILLE      FAIR      79  61  53 NE3       30.12F
JEFFERSON      PTSUNNY   70  58  66 W13G29    30.14R
MORGANTON      FAIR      77  59  54 S5        30.11F
HICKORY        FAIR      77  63  61 S8        30.07F
WILKESBORO     NOT AVBL
RUTHERFORDTON  FAIR      79  63  57 SW5       30.09S
MOUNT AIRY     FAIR      78  66  66 S7        30.08F
BOONE          FAIR      72  56  57 NW20G33   30.15R
$$

NCZ021-022-025-041-071-084-088-161600-
CENTRAL NORTH CAROLINA

CITY           SKY/WX    TMP DP  RH WIND       PRES   REMARKS
CHARLOTTE      FAIR      81  67  62 SW12G20   30.10R
GREENSBORO     PTSUNNY   79  65  62 W14G21    30.07R
WINSTON-SALEM  FAIR      79  62  56 SW9       30.08S
RALEIGH-DURHAM FAIR      80  66  62 SW15      30.07F
FORT BRAGG     FAIR      82  67  59 SW8       30.08S
FAYETTEVILLE   FAIR      83  68  60 SW14      30.09S
BURLINGTON     FAIR      83  65  54 SW13G20   30.06F
ROXBORO        FAIR      79  63  57 SW14G23   30.07F
HENDERSON      FAIR      78  64  61 SW10G18   30.05S
LOUISBURG      FAIR      79  64  61 SW10G17   30.09S
LAURINBURG     PTSUNNY   81  68  64 SW9       30.10F
$$

NCZ011-015-027-028-043-044-047-080-103-161600-
NORTHEASTERN NORTH CAROLINA

CITY           SKY/WX    TMP DP  RH WIND       PRES   REMARKS
ROCKY MT-WILSO FAIR      81  68  64 S13       30.07S
GREENVILLE     FAIR      81  68  65 SW13      30.09S
WASHINGTON     FAIR      82  67  59 SW13      30.08S
ELIZABETH CITY FAIR      81  67  62 SW16G22   30.05F
MANTEO         FAIR      80  66  60 W10       30.08S
CAPE HATTERAS  FAIR      81  69  67 VRB6      30.10F
$$

NCZ078-087-090-091-093-098-101-161600-
SOUTHEASTERN NORTH CAROLINA

CITY           SKY/WX    TMP DP  RH WIND       PRES   REMARKS
GOLDSBORO      FAIR      82  67  60 SW14      30.07S
KINSTON        SUNNY     81  70  69 W12       30.10R
KENANSVILLE    FAIR      81  68  65 W9        30.10S
NEW BERN       FAIR      83  70  64 SW10      30.10S
CHERRY POINT   FAIR      85  66  53 SW13      30.10S
BEAUFORT       FAIR      82  70  66 SW13      30.10S
JACKSONVILLE   FAIR      84  70  62 SW5       30.09S
WILMINGTON     PTSUNNY   80  71  74 S8        30.10R
$$




USA.gov is the U.S. government's official web portal to all federal, state and local government web resources and services.